QPF
0.06 0.10 0.12 0.11 0.12 0.16 0.19 0.17 0.13 0.12 0.16 0.14 0.10 0.10 0.11 0.09 0.07 0.07 0.07 0.06 0.04 0.05 0.10 0.14 0.14 0.11 0.08 0.05 0.04 0.05 0.05 0.04 0.04 0.03 0.03 0.04 0.07 0.06 0.03 0.03 0.05 0.05 0.07
0.03 0.05 0.08 0.09 0.11 0.15 0.17 0.20 0.21 0.21 0.20 0.14 0.10 0.09 0.11 0.10 0.11 0.12 0.10 0.07 0.08 0.08 0.08 0.10 0.10 0.09 0.08 0.05 0.04 0.04 0.03 0.04 0.03 0.03 0.03 0.04 0.05 0.06 0.03 0.04 0.06 0.06 0.06
0.04 0.05 0.06 0.07 0.11 0.11 0.11 0.13 0.16 0.16 0.15 0.15 0.12 0.09 0.12 0.10 0.11 0.14 0.09 0.09 0.09 0.08 0.07 0.07 0.07 0.08 0.07 0.05 0.04 0.03 0.03 0.03 0.03 0.03 0.03 0.03 0.03 0.04 0.04 0.05 0.05 0.05 0.07
0.05 0.04 0.05 0.05 0.06 0.08 0.08 0.10 0.13 0.12 0.13 0.13 0.13 0.12 0.14 0.13 0.10 0.14 0.11 0.10 0.10 0.08 0.09 0.08 0.06 0.06 0.06 0.05 0.04 0.05 0.05 0.04 0.03 0.03 0.03 0.03 0.04 0.04 0.04 0.04 0.04 0.04 0.06
0.03 0.03 0.03 0.04 0.03 0.04 0.06 0.10 0.14 0.14 0.15 0.14 0.14 0.14 0.15 0.17 0.14 0.13 0.14 0.12 0.10 0.09 0.09 0.11 0.09 0.06 0.07 0.07 0.05 0.05 0.05 0.05 0.05 0.05 0.05 0.05 0.06 0.04 0.03 0.03 0.03 0.04 0.05
0.02 0.02 0.03 0.04 0.04 0.03 0.04 0.06 0.12 0.12 0.12 0.13 0.14 0.15 0.17 0.17 0.17 0.14 0.13 0.15 0.13 0.10 0.09 0.11 0.09 0.07 0.06 0.06 0.05 0.05 0.06 0.06 0.07 0.06 0.05 0.06 0.06 0.06 0.03 0.02 0.02 0.02 0.04
0.01 0.02 0.03 0.05 0.05 0.04 0.04 0.05 0.08 0.11 0.13 0.11 0.10 0.12 0.15 0.14 0.14 0.14 0.14 0.16 0.17 0.13 0.11 0.10 0.08 0.07 0.06 0.04 0.04 0.05 0.07 0.07 0.07 0.05 0.05 0.04 0.03 0.02 0.02 0.03 0.02 0.02 0.02
0.01 0.01 0.03 0.03 0.05 0.05 0.04 0.05 0.06 0.07 0.09 0.09 0.09 0.09 0.10 0.12 0.13 0.10 0.11 0.16 0.18 0.16 0.16 0.15 0.11 0.10 0.07 0.04 0.04 0.04 0.05 0.06 0.07 0.06 0.05 0.03 0.02 0.02 0.03 0.02 0.03 0.02 0.02
0.01 0.02 0.02 0.03 0.03 0.05 0.06 0.06 0.06 0.06 0.05 0.05 0.05 0.05 0.05 0.06 0.07 0.07 0.08 0.11 0.11 0.15 0.17 0.20 0.15 0.08 0.06 0.04 0.03 0.03 0.04 0.04 0.06 0.06 0.06 0.05 0.04 0.04 0.04 0.03 0.02 0.02 0.02
0.01 0.02 0.03 0.03 0.02 0.02 0.03 0.03 0.04 0.06 0.05 0.04 0.03 0.03 0.02 0.03 0.04 0.04 0.05 0.06 0.07 0.10 0.14 0.15 0.13 0.08 0.05 0.04 0.03 0.03 0.04 0.04 0.05 0.07 0.09 0.10 0.08 0.07 0.06 0.04 0.02 0.02 0.02
0.00 0.01 0.03 0.03 0.02 0.01 0.01 0.01 0.02 0.03 0.04 0.03 0.02 0.02 0.02 0.02 0.04 0.04 0.05 0.05 0.05 0.06 0.08 0.10 0.10 0.10 0.08 0.07 0.05 0.03 0.04 0.05 0.05 0.07 0.11 0.13 0.12 0.11 0.10 0.06 0.05 0.03 0.03
0.00 0.01 0.02 0.03 0.02 0.01 0.01 0.01 0.02 0.02 0.02 0.02 0.02 0.02 0.02 0.02 0.02 0.03 0.06 0.04 0.03 0.04 0.05 0.05 0.07 0.07 0.06 0.07 0.05 0.04 0.04 0.04 0.03 0.08 0.16 0.17 0.17 0.13 0.09 0.07 0.06 0.05 0.06
0.01 0.01 0.02 0.03 0.02 0.02 0.02 0.02 0.02 0.01 0.01 0.01 0.01 0.02 0.03 0.02 0.03 0.06 0.06 0.02 0.02 0.03 0.04 0.04 0.04 0.06 0.06 0.06 0.04 0.03 0.03 0.03 0.03 0.04 0.07 0.08 0.09 0.07 0.07 0.06 0.04 0.04 0.05
0.01 0.01 0.02 0.03 0.03 0.02 0.02 0.02 0.02 0.01 0.01 0.01 0.02 0.03 0.03 0.04 0.05 0.04 0.03 0.02 0.02 0.02 0.02 0.02 0.03 0.04 0.05 0.06 0.06 0.06 0.05 0.04 0.04 0.04 0.03 0.04 0.03 0.03 0.04 0.05 0.05 0.05 0.05
0.03 0.03 0.03 0.04 0.04 0.03 0.02 0.02 0.02 0.02 0.01 0.02 0.02 0.02 0.03 0.03 0.04 0.04 0.03 0.03 0.03 0.02 0.02 0.02 0.02 0.02 0.03 0.04 0.08 0.11 0.10 0.08 0.08 0.07 0.05 0.04 0.03 0.02 0.02 0.04 0.05 0.04 0.03
0.06 0.04 0.04 0.04 0.03 0.02 0.02 0.02 0.03 0.04 0.03 0.03 0.03 0.03 0.02 0.03 0.02 0.03 0.04 0.03 0.02 0.02 0.02 0.02 0.02 0.01 0.01 0.02 0.03 0.06 0.09 0.11 0.11 0.09 0.06 0.05 0.04 0.02 0.02 0.06 0.06 0.03 0.02
0.08 0.05 0.03 0.02 0.02 0.02 0.02 0.02 0.03 0.05 0.03 0.03 0.03 0.03 0.03 0.03 0.03 0.03 0.03 0.03 0.03 0.03 0.03 0.02 0.03 0.03 0.02 0.02 0.01 0.02 0.02 0.04 0.05 0.05 0.05 0.05 0.04 0.03 0.03 0.06 0.06 0.03 0.02
0.10 0.07 0.05 0.03 0.02 0.02 0.02 0.02 0.03 0.04 0.03 0.03 0.02 0.03 0.03 0.03 0.04 0.05 0.05 0.05 0.05 0.04 0.03 0.02 0.02 0.03 0.03 0.03 0.02 0.02 0.02 0.01 0.03 0.04 0.04 0.04 0.04 0.03 0.02 0.04 0.03 0.02 0.02
0.07 0.09 0.07 0.04 0.03 0.02 0.02 0.02 0.02 0.02 0.02 0.02 0.02 0.02 0.04 0.04 0.06 0.05 0.04 0.03 0.03 0.02 0.02 0.01 0.01 0.02 0.04 0.05 0.05 0.04 0.03 0.02 0.02 0.03 0.04 0.05 0.05 0.05 0.04 0.03 0.02 0.01 0.02
0.03 0.04 0.06 0.06 0.05 0.03 0.02 0.03 0.02 0.02 0.02 0.01 0.01 0.02 0.02 0.01 0.02 0.02 0.02 0.01 0.02 0.02 0.02 0.01 0.01 0.01 0.02 0.03 0.03 0.04 0.03 0.02 0.02 0.03 0.04 0.04 0.06 0.06 0.05 0.04 0.03 0.02 0.01
0.05 0.05 0.05 0.05 0.05 0.04 0.03 0.04 0.03 0.03 0.02 0.02 0.01 0.01 0.01 0.01 0.02 0.02 0.02 0.02 0.02 0.01 0.01 0.01 0.01 0.01 0.01 0.02 0.02 0.03 0.02 0.02 0.03 0.02 0.02 0.02 0.04 0.06 0.05 0.03 0.02 0.02 0.02
0.06 0.07 0.07 0.05 0.04 0.03 0.04 0.04 0.03 0.03 0.02 0.02 0.01 0.01 0.01 0.01 0.02 0.02 0.02 0.02 0.01 0.01 0.01 0.01 0.01 0.01 0.01 0.01 0.02 0.04 0.03 0.03 0.02 0.01 0.01 0.01 0.03 0.04 0.04 0.03 0.02 0.02 0.02
0.04 0.05 0.05 0.06 0.06 0.06 0.06 0.05 0.04 0.03 0.02 0.02 0.02 0.02 0.02 0.02 0.02 0.02 0.02 0.01 0.01 0.00 0.00 0.01 0.01 0.00 0.00 0.01 0.02 0.03 0.04 0.04 0.02 0.02 0.02 0.01 0.03 0.03 0.04 0.03 0.02 0.03 0.02
0.03 0.04 0.06 0.06 0.06 0.06 0.06 0.04 0.03 0.03 0.02 0.02 0.01 0.01 0.01 0.01 0.01 0.03 0.02 0.01 0.01 0.00 0.00 0.01 0.00 0.00 0.00 0.01 0.01 0.03 0.03 0.04 0.04 0.03 0.04 0.03 0.02 0.03 0.05 0.03 0.03 0.03 0.03
0.04 0.04 0.05 0.05 0.05 0.04 0.04 0.04 0.03 0.02 0.02 0.02 0.02 0.01 0.01 0.01 0.02 0.04 0.03 0.02 0.01 0.00 0.00 0.01 0.01 0.01 0.00 0.01 0.01 0.02 0.02 0.03 0.02 0.03 0.04 0.05 0.04 0.06 0.06 0.02 0.02 0.04 0.04
0.08 0.09 0.09 0.09 0.06 0.04 0.04 0.03 0.03 0.03 0.03 0.02 0.02 0.03 0.04 0.03 0.04 0.04 0.04 0.03 0.01 0.01 0.01 0.01 0.01 0.00 0.00 0.01 0.01 0.01 0.02 0.02 0.01 0.01 0.02 0.05 0.06 0.08 0.07 0.03 0.03 0.03 0.03
MSLP
1008.82 1009.33 1009.77 1010.18 1010.62 1011.09 1011.58 1012.09 1012.59 1013.07 1013.50 1013.86 1014.14 1014.35 1014.47 1014.52 1014.50 1014.44 1014.35 1014.26 1014.21 1014.22 1014.31 1014.50 1014.76 1015.07 1015.40 1015.71 1015.96 1016.13 1016.21 1016.22 1016.17 1016.11 1016.08 1016.08 1016.14 1016.26 1016.41 1016.59 1016.77 1016.93 1017.07
1009.23 1009.70 1010.15 1010.59 1011.05 1011.53 1012.02 1012.51 1012.99 1013.45 1013.87 1014.24 1014.54 1014.78 1014.94 1015.01 1015.01 1014.94 1014.83 1014.72 1014.63 1014.60 1014.65 1014.80 1015.03 1015.32 1015.64 1015.93 1016.16 1016.32 1016.40 1016.40 1016.36 1016.30 1016.27 1016.27 1016.31 1016.41 1016.54 1016.68 1016.83 1016.96 1017.08
1009.61 1010.07 1010.53 1011.01 1011.49 1011.99 1012.48 1012.97 1013.43 1013.88 1014.30 1014.68 1015.02 1015.30 1015.51 1015.62 1015.65 1015.59 1015.47 1015.32 1015.17 1015.08 1015.07 1015.15 1015.32 1015.55 1015.82 1016.08 1016.30 1016.46 1016.54 1016.56 1016.53 1016.50 1016.47 1016.47 1016.51 1016.58 1016.67 1016.77 1016.87 1016.97 1017.07
1009.98 1010.44 1010.92 1011.43 1011.95 1012.47 1012.97 1013.44 1013.90 1014.33 1014.75 1015.16 1015.54 1015.88 1016.14 1016.32 1016.40 1016.36 1016.23 1016.05 1015.85 1015.68 1015.58 1015.56 1015.64 1015.79 1016.00 1016.21 1016.40 1016.54 1016.63 1016.67 1016.67 1016.66 1016.65 1016.66 1016.68 1016.72 1016.78 1016.83 1016.88 1016.93 1017.00
1010.36 1010.82 1011.33 1011.87 1012.42 1012.95 1013.45 1013.91 1014.34 1014.76 1015.19 1015.62 1016.05 1016.45 1016.79 1017.05 1017.19 1017.20 1017.09 1016.89 1016.64 1016.39 1016.19 1016.07 1016.04 1016.09 1016.20 1016.35 1016.49 1016.61 1016.70 1016.75 1016.77 1016.78 1016.79 1016.80 1016.81 1016.83 1016.84 1016.84 1016.84 1016.84 1016.87
1010.75 1011.21 1011.74 1012.31 1012.87 1013.40 1013.89 1014.33 1014.73 1015.14 1015.56 1016.01 1016.48 1016.95 1017.38 1017.73 1017.95 1018.03 1017.96 1017.77 1017.50 1017.20 1016.91 1016.69 1016.55 1016.49 1016.51 1016.56 1016.64 1016.72 1016.78 1016.83 1016.86 1016.88 1016.90 1016.91 1016.91 1016.90 1016.87 1016.83 1016.78 1016.73 1016.71
1011.16 1011.62 1012.16 1012.73 1013.29 1013.81 1014.27 1014.67 1015.04 1015.41 1015.81 1016.27 1016.78 1017.31 1017.83 1018.27 1018.59 1018.76 1018.76 1018.61 1018.36 1018.04 1017.71 1017.41 1017.18 1017.03 1016.94 1016.90 1016.90 1016.92 1016.94 1016.96 1016.98 1017.00 1017.01 1017.02 1017.01 1016.98 1016.92 1016.84 1016.74 1016.64 1016.56
1011.58 1012.03 1012.56 1013.12 1013.66 1014.14 1014.55 1014.91 1015.22 1015.55 1015.93 1016.38 1016.91 1017.49 1018.08 1018.61 1019.04 1019.31 1019.41 1019.34 1019.14 1018.85 1018.52 1018.20 1017.91 1017.68 1017.51 1017.39 1017.31 1017.25 1017.21 1017.18 1017.17 1017.17 1017.17 1017.17 1017.15 1017.11 1017.03 1016.92 1016.77 1016.62 1016.48
1012.00 1012.42 1012.91 1013.44 1013.94 1014.38 1014.74 1015.03 1015.29 1015.57 1015.90 1016.33 1016.86 1017.46 1018.10 1018.71 1019.23 1019.61 1019.82 1019.86 1019.76 1019.54 1019.26 1018.96 1018.67 1018.41 1018.18 1018.00 1017.84 1017.71 1017.60 1017.52 1017.46 1017.43 1017.42 1017.41 1017.39 1017.34 1017.25 1017.11 1016.94 1016.74 1016.54
1012.37 1012.75 1013.20 1013.68 1014.13 1014.52 1014.83 1015.06 1015.26 1015.47 1015.75 1016.14 1016.64 1017.24 1017.90 1018.55 1019.15 1019.62 1019.94 1020.11 1020.13 1020.02 1019.84 1019.61 1019.37 1019.12 1018.89 1018.67 1018.46 1018.27 1018.10 1017.97 1017.86 1017.80 1017.77 1017.75 1017.73 1017.69 1017.60 1017.46 1017.26 1017.03 1016.77
1012.69 1013.02 1013.42 1013.85 1014.24 1014.58 1014.83 1015.00 1015.14 1015.30 1015.52 1015.85 1016.31 1016.87 1017.51 1018.18 1018.81 1019.35 1019.77 1020.06 1020.21 1020.24 1020.19 1020.08 1019.93 1019.75 1019.55 1019.33 1019.11 1018.89 1018.68 1018.49 1018.35 1018.26 1018.21 1018.19 1018.18 1018.15 1018.08 1017.94 1017.73 1017.47 1017.16
1012.93 1013.21 1013.56 1013.94 1014.28 1014.57 1014.77 1014.90 1014.99 1015.09 1015.25 1015.52 1015.91 1016.41 1017.01 1017.65 1018.28 1018.86 1019.35 1019.73 1020.01 1020.19 1020.29 1020.32 1020.29 1020.21 1020.09 1019.92 1019.72 1019.49 1019.27 1019.06 1018.90 1018.79 1018.73 1018.71 1018.71 1018.70 1018.64 1018.51 1018.31 1018.02 1017.68
1013.12 1013.35 1013.65 1013.97 1014.28 1014.52 1014.68 1014.77 1014.82 1014.88 1014.98 1015.18 1015.50 1015.93 1016.46 1017.04 1017.65 1018.22 1018.75 1019.20 1019.59 1019.90 1020.14 1020.32 1020.44 1020.50 1020.48 1020.40 1020.25 1020.06 1019.84 1019.63 1019.46 1019.35 1019.28 1019.27 1019.28 1019.28 1019.24 1019.13 1018.93 1018.64 1018.28
1013.26 1013.45 1013.71 1013.99 1014.24 1014.45 1014.58 1014.64 1014.66 1014.68 1014.74 1014.89 1015.14 1015.49 1015.93 1016.44 1016.99 1017.54 1018.07 1018.56 1019.02 1019.44 1019.82 1020.15 1020.42 1020.62 1020.73 1020.75 1020.69 1020.55 1020.38 1020.19 1020.02 1019.91 1019.85 1019.84 1019.85 1019.86 1019.83 1019.73 1019.54 1019.25 1018.89
1013.39 1013.55 1013.77 1014.00 1014.22 1014.38 1014.48 1014.52 1014.52 1014.52 1014.55 1014.65 1014.84 1015.12 1015.49 1015.92 1016.40 1016.90 1017.41 1017.92 1018.43 1018.93 1019.42 1019.88 1020.30 1020.64 1020.88 1021.02 1021.06 1021.00 1020.87 1020.72 1020.57 1020.46 1020.40 1020.38 1020.39 1020.40 1020.37 1020.28 1020.09 1019.82 1019.47
1013.53 1013.66 1013.84 1014.03 1014.21 1014.34 1014.41 1014.43 1014.41 1014.40 1014.41 1014.49 1014.63 1014.86 1015.16 1015.52 1015.93 1016.38 1016.86 1017.36 1017.90 1018.46 1019.04 1019.61 1020.15 1020.62 1020.99 1021.25 1021.38 1021.41 1021.34 1021.23 1021.10 1021.00 1020.93 1020.90 1020.89 1020.88 1020.85 1020.75 1020.57 1020.31 1019.98
1013.68 1013.80 1013.95 1014.10 1014.23 1014.32 1014.36 1014.36 1014.34 1014.32 1014.33 1014.39 1014.52 1014.71 1014.97 1015.28 1015.63 1016.03 1016.47 1016.97 1017.51 1018.11 1018.75 1019.41 1020.04 1020.62 1021.10 1021.47 1021.69 1021.80 1021.80 1021.72 1021.62 1021.51 1021.43 1021.38 1021.35 1021.31 1021.25 1021.14 1020.96 1020.71 1020.41
1013.86 1013.96 1014.08 1014.20 1014.29 1014.34 1014.36 1014.34 1014.31 1014.30 1014.31 1014.38 1014.50 1014.68 1014.91 1015.18 1015.49 1015.86 1016.27 1016.75 1017.30 1017.92 1018.59 1019.31 1020.01 1020.67 1021.24 1021.69 1022.00 1022.17 1022.22 1022.18 1022.10 1021.99 1021.90 1021.82 1021.75 1021.69 1021.60 1021.47 1021.28 1021.05 1020.77
1014.03 1014.14 1014.24 1014.33 1014.39 1014.41 1014.40 1014.38 1014.35 1014.34 1014.37 1014.44 1014.57 1014.75 1014.97 1015.22 1015.51 1015.85 1016.24 1016.70 1017.24 1017.87 1018.56 1019.30 1020.05 1020.76 1021.39 1021.90 1022.27 1022.49 1022.59 1022.58 1022.51 1022.41 1022.30 1022.20 1022.11 1022.01 1021.89 1021.74 1021.55 1021.32 1021.07
1014.19 1014.31 1014.41 1014.48 1014.52 1014.53 1014.51 1014.48 1014.46 1014.46 1014.51 1014.60 1014.74 1014.92 1015.14 1015.38 1015.66 1015.97 1016.34 1016.78 1017.31 1017.92 1018.62 1019.37 1020.13 1020.86 1021.52 1022.06 1022.47 1022.73 1022.85 1022.88 1022.82 1022.72 1022.61 1022.50 1022.39 1022.27 1022.14 1021.98 1021.78 1021.56 1021.32
1014.33 1014.46 1014.57 1014.65 1014.70 1014.71 1014.70 1014.67 1014.66 1014.68 1014.74 1014.85 1015.01 1015.19 1015.41 1015.65 1015.91 1016.20 1016.55 1016.96 1017.46 1018.05 1018.71 1019.44 1020.19 1020.92 1021.57 1022.12 1022.54 1022.82 1022.97 1023.02 1022.98 1022.90 1022.80 1022.70 1022.58 1022.47 1022.33 1022.16 1021.97 1021.75 1021.53
1014.44 1014.60 1014.74 1014.84 1014.91 1014.94 1014.95 1014.95 1014.96 1015.00 1015.08 1015.20 1015.37 1015.56 1015.77 1016.00 1016.24 1016.51 1016.82 1017.20 1017.65 1018.20 1018.82 1019.50 1020.21 1020.90 1021.53 1022.06 1022.48 1022.76 1022.93 1022.99 1022.98 1022.92 1022.85 1022.76 1022.67 1022.57 1022.45 1022.30 1022.11 1021.90 1021.69
1014.53 1014.73 1014.91 1015.05 1015.15 1015.21 1015.25 1015.28 1015.32 1015.39 1015.49 1015.63 1015.81 1016.00 1016.21 1016.42 1016.64 1016.87 1017.15 1017.47 1017.87 1018.36 1018.91 1019.53 1020.17 1020.81 1021.39 1021.89 1022.28 1022.55 1022.72 1022.80 1022.82 1022.79 1022.76 1022.71 1022.66 1022.59 1022.50 1022.38 1022.21 1022.01 1021.80
1014.61 1014.86 1015.08 1015.26 1015.40 1015.51 1015.58 1015.65 1015.72 1015.82 1015.95 1016.11 1016.30 1016.50 1016.70 1016.89 1017.08 1017.29 1017.51 1017.78 1018.12 1018.53 1019.01 1019.55 1020.11 1020.67 1021.19 1021.64 1022.00 1022.25 1022.42 1022.51 1022.54 1022.55 1022.56 1022.56 1022.55 1022.53 1022.49 1022.40 1022.26 1022.08 1021.88
1014.71 1015.00 1015.26 1015.47 1015.65 1015.79 1015.90 1016.00 1016.11 1016.25 1016.41 1016.60 1016.80 1017.01 1017.21 1017.40 1017.57 1017.73 1017.92 1018.13 1018.40 1018.73 1019.13 1019.58 1020.07 1020.55 1021.00 1021.39 1021.71 1021.94 1022.09 1022.18 1022.24 1022.27 1022.31 1022.35 1022.39 1022.42 1022.42 1022.37 1022.27 1022.11 1021.92
1014.81 1015.13 1015.42 1015.66 1015.86 1016.02 1016.16 1016.29 1016.44 1016.61 1016.81 1017.03 1017.27 1017.50 1017.71 1017.90 1018.06 1018.21 1018.35 1018.52 1018.73 1018.99 1019.31 1019.69 1020.09 1020.50 1020.88 1021.22 1021.49 1021.69 1021.82 1021.91 1021.97 1022.02 1022.08 1022.15 1022.23 1022.29 1022.33 1022.32 1022.25 1022.12 1021.94
Thickness
5789 5787 5786 5785 5784 5784 5785 5785 5784 5783 5782 5780 5778 5777 5775 5774 5773 5773 5772 5770 5769 5768 5766 5764 5763 5761 5759 5757 5756 5755 5754 5753 5752 5750 5749 5748 5748 5747 5746 5745 5743 5742 5741
5788 5786 5784 5783 5782 5782 5782 5782 5781 5780 5779 5777 5775 5774 5773 5772 5771 5771 5769 5768 5767 5765 5764 5762 5760 5759 5757 5756 5755 5754 5753 5752 5751 5750 5748 5747 5746 5745 5744 5743 5742 5740 5739
5786 5784 5782 5780 5780 5780 5779 5779 5778 5777 5775 5774 5771 5770 5770 5770 5768 5767 5767 5765 5764 5763 5762 5760 5759 5757 5756 5755 5754 5752 5751 5751 5750 5749 5747 5746 5745 5744 5742 5741 5740 5739 5738
5785 5782 5780 5778 5778 5778 5777 5775 5774 5772 5770 5769 5767 5767 5767 5766 5765 5765 5764 5762 5761 5760 5759 5758 5757 5755 5755 5753 5752 5751 5750 5749 5748 5747 5746 5745 5744 5742 5741 5740 5739 5738 5736
5783 5781 5778 5777 5777 5776 5774 5773 5770 5769 5766 5765 5764 5764 5763 5762 5762 5762 5760 5759 5759 5758 5757 5756 5754 5753 5753 5752 5751 5750 5749 5748 5747 5746 5744 5743 5741 5740 5739 5738 5737 5736 5735
5781 5779 5777 5775 5774 5773 5771 5769 5767 5766 5764 5763 5763 5760 5759 5759 5758 5758 5757 5756 5755 5755 5753 5752 5751 5750 5750 5749 5748 5748 5747 5746 5745 5744 5743 5741 5740 5738 5737 5736 5735 5734 5733
5778 5777 5775 5773 5771 5769 5767 5766 5765 5762 5760 5760 5756 5752 5753 5755 5755 5754 5754 5753 5752 5751 5750 5749 5748 5748 5747 5747 5746 5746 5745 5744 5743 5742 5741 5739 5738 5737 5736 5735 5733 5733 5731
5776 5774 5771 5769 5768 5766 5763 5762 5761 5758 5756 5756 5751 5746 5741 5742 5747 5750 5750 5749 5749 5749 5748 5747 5746 5745 5745 5744 5744 5744 5743 5743 5741 5740 5739 5737 5736 5735 5733 5732 5731 5730 5729
5773 5771 5769 5767 5764 5762 5759 5759 5758 5755 5751 5751 5751 5745 5736 5732 5737 5742 5745 5746 5746 5746 5746 5745 5744 5743 5742 5742 5742 5742 5742 5741 5740 5739 5737 5736 5734 5732 5731 5730 5729 5727 5726
5770 5768 5766 5764 5761 5759 5757 5756 5755 5753 5751 5747 5747 5747 5745 5741 5734 5732 5737 5741 5743 5743 5743 5743 5742 5741 5740 5740 5740 5740 5740 5739 5738 5737 5735 5734 5732 5730 5729 5727 5726 5724 5724
5766 5765 5763 5761 5758 5756 5754 5753 5752 5750 5749 5746 5744 5743 5741 5739 5737 5731 5728 5732 5736 5738 5739 5739 5738 5738 5737 5737 5737 5737 5737 5736 5735 5734 5733 5731 5729 5727 5725 5724 5723 5722 5721
5761 5760 5759 5757 5755 5753 5751 5750 5749 5747 5746 5745 5743 5741 5738 5735 5732 5730 5727 5726 5728 5732 5735 5735 5735 5735 5735 5734 5734 5734 5733 5733 5732 5731 5730 5728 5726 5724 5723 5722 5720 5719 5719
5756 5755 5755 5753 5751 5750 5748 5747 5745 5743 5742 5741 5739 5738 5737 5736 5735 5731 5727 5724 5724 5726 5728 5730 5732 5732 5732 5731 5731 5730 5730 5729 5728 5727 5726 5724 5723 5721 5720 5718 5717 5716 5715
5754 5753 5751 5749 5747 5746 5745 5743 5741 5740 5739 5738 5737 5736 5734 5734 5734 5731 5727 5723 5718 5718 5720 5722 5726 5727 5728 5727 5727 5726 5726 5726 5724 5723 5722 5720 5718 5717 5716 5714 5713 5712 5711
5752 5749 5747 5745 5743 5742 5740 5738 5737 5736 5735 5734 5733 5732 5731 5731 5731 5730 5728 5725 5719 5712 5712 5716 5719 5723 5723 5723 5723 5723 5722 5722 5721 5719 5718 5716 5714 5713 5712 5710 5709 5707 5706
5748 5745 5743 5741 5739 5737 5736 5734 5733 5732 5731 5729 5729 5728 5727 5727 5726 5726 5724 5723 5720 5715 5709 5713 5715 5718 5718 5719 5719 5718 5718 5718 5716 5715 5714 5712 5711 5709 5707 5705 5704 5702 5701
5743 5741 5739 5737 5734 5732 5731 5729 5728 5727 5726 5724 5724 5723 5721 5721 5719 5719 5719 5717 5716 5713 5707 5708 5710 5712 5713 5712 5713 5713 5713 5712 5712 5711 5710 5708 5706 5704 5703 5700 5698 5697 5696
5739 5737 5734 5731 5729 5727 5725 5723 5722 5721 5720 5718 5717 5716 5715 5715 5713 5713 5712 5710 5709 5709 5705 5701 5702 5704 5705 5706 5706 5706 5707 5707 5706 5706 5705 5703 5701 5699 5697 5695 5693 5692 5690
5734 5732 5729 5726 5723 5722 5720 5718 5717 5715 5714 5713 5712 5710 5709 5708 5706 5705 5704 5703 5703 5703 5700 5697 5695 5696 5697 5699 5698 5699 5700 5700 5700 5700 5698 5697 5695 5693 5691 5690 5688 5687 5685
5729 5726 5723 5720 5718 5717 5715 5713 5711 5709 5708 5707 5706 5705 5704 5702 5700 5699 5699 5697 5696 5693 5691 5689 5688 5688 5689 5691 5691 5690 5690 5691 5691 5693 5692 5691 5690 5688 5686 5685 5683 5682 5680
5724 5721 5717 5715 5713 5712 5710 5708 5705 5704 5701 5700 5700 5699 5699 5698 5697 5695 5693 5690 5689 5686 5683 5681 5679 5679 5680 5680 5681 5682 5682 5682 5684 5685 5684 5684 5683 5682 5681 5679 5678 5677 5675
5718 5714 5711 5709 5707 5706 5705 5704 5701 5697 5695 5693 5692 5691 5691 5691 5690 5689 5688 5686 5684 5680 5676 5674 5672 5671 5672 5673 5675 5676 5674 5672 5672 5677 5676 5676 5677 5676 5676 5675 5674 5672 5670
5712 5707 5704 5702 5699 5699 5698 5697 5695 5691 5689 5687 5685 5683 5684 5683 5682 5680 5679 5679 5677 5677 5675 5671 5668 5667 5667 5668 5667 5667 5667 5666 5667 5670 5669 5668 5669 5669 5671 5670 5669 5667 5665
5705 5702 5698 5695 5692 5692 5691 5690 5688 5684 5682 5680 5678 5677 5675 5674 5674 5672 5671 5669 5667 5667 5667 5666 5665 5664 5664 5664 5663 5662 5661 5661 5662 5663 5663 5659 5661 5662 5665 5664 5663 5661 5660
5699 5695 5692 5689 5685 5684 5684 5682 5680 5676 5673 5672 5671 5669 5668 5666 5666 5665 5662 5659 5658 5659 5660 5660 5660 5660 5659 5659 5658 5655 5653 5651 5651 5653 5655 5653 5653 5653 5654 5655 5655 5654 5653
5693 5689 5685 5682 5679 5677 5676 5675 5674 5670 5666 5663 5662 5661 5661 5659 5658 5656 5653 5650 5649 5649 5649 5650 5651 5651 5651 5651 5651 5649 5647 5644 5642 5643 5647 5646 5645 5644 5643 5646 5646 5646 5645